Regional & State Weather Roundups


230 
ASUS41 KLWX 190311
RWRLWX
REGIONAL WEATHER ROUNDUP
NATIONAL WEATHER SERVICE BALTIMORE MD/WASHINGTON DC
1000 PM EST THU JAN 18 2018
Note: "FAIR" indicates few or no clouds below 12,000 feet
with no significant weather and/or obstructions to visibility.
 TC=TEMPERATURE CELSIUS
 * =Non NWS site. Station does not report precipitation (e.g. rain,
    snow, etc.), thunder, or fog.
DCZ001-MDZ009-015-VAZ040>042-051-053>054-190400-
WASHINGTON METRO
  
CITY           SKY/WX    TMP DP  RH WIND       PRES   REMARKS
WASHINGTON NAT FAIR      40   3  21 NW6       30.13R                  
DULLES         FAIR      28   8  43 CALM      30.11R                  
ANDREWS AFB    FAIR      28  11  48 W5        30.11R WCI  23          
FT BELVOIR     FAIR      25  12  58 CALM      30.13R                  
COLLEGE PARK*  FAIR      24  16  70 CALM      30.12R                  
LEESBURG*      FAIR      39  10  30 N6        30.12S WCI  35          
MANASSAS*      FAIR      23  15  71 CALM      30.13R                  
GAITHERSBURG*  FAIR      26  12  55 CALM      30.11R                  
$$
MDZ006>007-011-014-190400-
BALTIMORE METRO
  
CITY           SKY/WX    TMP DP  RH WIND       PRES   REMARKS
BWI AIRPORT    FAIR      31   8  38 SW3       30.11R                  
MD SCIENCE CTR   N/A     36  10  34 MISG      30.11R                  
MARTIN STATE   CLEAR     27  18  69 CALM      30.12R                  
ANNAPOLIS      FAIR      30  19  63 CALM      30.12R                  
FORT MEADE*    FAIR      23  18  80 CALM      30.14R                  
$$
MDZ012-015-019>023-190400-
MARYLAND EASTERN SHORE
  
CITY           SKY/WX    TMP DP  RH WIND       PRES   REMARKS
OCEAN CITY     NOT AVBL                                               
SALISBURY      FAIR      27  18  69 W5        30.12R WCI  22          
BAY BRIDGE AP* FAIR      36  14  41 W6        30.12R WCI  31          
CAMBRIDGE*     CLEAR     25  16  68 SW5       30.13R WCI  19          
EASTON*        CLEAR     28  16  59 CALM      30.15R                  
$$
MDZ017>025-190400-
SOUTHERN MARYLAND
  
CITY           SKY/WX    TMP DP  RH WIND       PRES   REMARKS
PATUXENT RIVER NOT AVBL                                               
ST INIGOES     FAIR      30  18  60 CALM      30.13R                  
LEONARDTOWN*   FAIR      32  18  55 W5        30.14R WCI  27          
$$
MDZ003>005-190400-
NORTH CENTRAL MARYLAND
  
CITY           SKY/WX    TMP DP  RH WIND       PRES   REMARKS
FREDERICK*     FAIR      34   0  23 CALM      30.14S                  
HAGERSTOWN APT FAIR      33   9  36 SW7       30.09S WCI  27          
WESTMINSTER*   FAIR      30  10  43 W7        30.07S WCI  23          
$$
MDZ501>502-190400-
WESTERN MARYLAND
  
CITY           SKY/WX    TMP DP  RH WIND       PRES   REMARKS
OAKLAND*       FAIR      19   7  58 SW15G24   30.07R WCI   5          
CUMBERLAND*    FAIR      34  10  37 SW6G16    30.17S WCI  29          
$$
VAZ025>031-190400-
SHENANDOAH VALLEY
  
CITY           SKY/WX    TMP DP  RH WIND       PRES   REMARKS
WINCHESTER*    FAIR      32   3  29 SW3       30.13R                  
FRONT ROYAL*   FAIR      36  10  35 E5        30.09R WCI  32          
LURAY*         FAIR      43   0  16 S9        30.10R                  
NEW MARKET*    FAIR      40  -2  17 SE5       30.10S                  
STAUNTON*      FAIR      32   7  35 S5        30.13S WCI  27          
WAYNESBORO*    FAIR      35   2  24 SW7       30.11R WCI  30          
$$
WVZ021-048>050-054>055-190400-
EASTERN WEST VIRGINIA PANHANDLE
  
CITY           SKY/WX    TMP DP  RH WIND       PRES   REMARKS
MARTINSBURG    FAIR      31   9  39 VRB3      30.10R                  
PETERSBURG*    FAIR      37   9  31 W3G16     30.16R                  
$$
VAZ036>039-050-190400-
CENTRAL FOOTHILLS
  
CITY           SKY/WX    TMP DP  RH WIND       PRES   REMARKS
CHARLOTTESVILL FAIR      36  10  34 S5        30.08R WCI  32          
CULPEPER*      FAIR      24  12  59 CALM      30.12R                  
ORANGE*        FAIR      28  14  54 CALM      30.10R                  
GORDONSVILLE*  FAIR      29  15  53 SW3       30.10R                  
WARRENTON*     FAIR      21  13  71 CALM      30.11R                  
$$
VAZ055>057-190400-
NORTH AND CENTRAL PIEDMONT
  
CITY           SKY/WX    TMP DP  RH WIND       PRES   REMARKS
FREDERICKSBRG* FAIR      26  19  74 CALM      30.12R                  
STAFFORD*      FAIR      27  16  63 CALM      30.16R                  
$$
NCZ024-NYZ072-PAZ021-071-VAZ022-071-190400-
OTHER REGIONAL OBSERVATIONS
  
CITY           SKY/WX    TMP DP  RH WIND       PRES   REMARKS
NEW YORK CITY  FAIR      27  12  53 NW7       30.10R WCI  19          
PHILADELPHIA   FAIR      30  11  45 CALM      30.12R                  
PITTSBURGH     FAIR      24  10  55 SW13      30.12F WCI  12          
ROANOKE        FAIR      36   6  28 W10       30.19R WCI  28          
RICHMOND       FAIR      32  15  49 SW6       30.14R WCI  26          
RALEIGH        FAIR      23  20  88 W5        30.24R WCI  17          
$$
ANZ530>537-190400-
MARINE OBSERVATIONS
  
STATION/POSITION TIME  TEMP    WIND        PRES
                       AIR SEA DIR/SP/G
                 (UTC) (F)     (DEG/KT/KT) (MB)
THOMAS PT LIGHT  0300   38 31  290/  6/  6   N/A
BALT KEY BRIDGE  0248   36     250/  5/  5 1019.8R
COVE POINT       0248   36     270/ 14/ 17 1020.6R
LEWISETTA        0248   34 31  270/  7/  8 1020.2R
SOLOMONS ISLAND  0248   35 34  290/  4/  5 1019.9R
PINEY POINT      0248          330/  3/  4   N/A
$$